<?xml version="1.0" encoding="UTF-8" standalone="no" ?>
<gpx xmlns="http://www.topografix.com/GPX/1/1" xmlns:xsi="http://www.w3.org/2001/XMLSchema-instance" xsi:schemaLocation="http://www.topografix.com/GPX/1/1 http://www.topografix.com/GPX/1/1/gpx.xsd" version="1.1" creator="VisuGPX - https://www.visugpx.com">
  <metadata>
    <name>31370-Rieumes-Beaufort-Sajas</name>
  </metadata>
  <trk>
    <name><![CDATA[31370-Rieumes-Beaufort-Sajas]]></name>
    <trkseg>
      <trkpt lat="43.40615" lon="1.09711">
        <ele>291</ele>
        <time>2005-09-12T13:29:07Z</time>
      </trkpt>
      <trkpt lat="43.40691" lon="1.0966">
        <ele>286</ele>
        <time>2005-09-12T13:29:07Z</time>
      </trkpt>
      <trkpt lat="43.40722" lon="1.0961">
        <ele>283</ele>
        <time>2005-09-12T13:29:07Z</time>
      </trkpt>
      <trkpt lat="43.40802" lon="1.09572">
        <ele>272</ele>
        <time>2005-09-12T13:29:07Z</time>
      </trkpt>
      <trkpt lat="43.40747" lon="1.0945">
        <ele>276</ele>
        <time>2005-09-12T13:29:07Z</time>
      </trkpt>
      <trkpt lat="43.40673" lon="1.09316">
        <ele>276</ele>
        <time>2005-09-12T13:29:07Z</time>
      </trkpt>
      <trkpt lat="43.40708" lon="1.09222">
        <ele>275</ele>
        <time>2005-09-12T13:29:07Z</time>
      </trkpt>
      <trkpt lat="43.40811" lon="1.0914">
        <ele>280</ele>
        <time>2005-09-12T13:29:07Z</time>
      </trkpt>
      <trkpt lat="43.40948" lon="1.08952">
        <ele>290</ele>
        <time>2005-09-12T13:29:07Z</time>
      </trkpt>
      <trkpt lat="43.41015" lon="1.08908">
        <ele>296</ele>
        <time>2005-09-12T13:29:07Z</time>
      </trkpt>
      <trkpt lat="43.41123" lon="1.08597">
        <ele>313</ele>
        <time>2005-09-12T13:29:07Z</time>
      </trkpt>
      <trkpt lat="43.4113" lon="1.08418">
        <ele>321</ele>
        <time>2005-09-12T13:29:07Z</time>
      </trkpt>
      <trkpt lat="43.4111" lon="1.08252">
        <ele>323</ele>
        <time>2005-09-12T13:29:07Z</time>
      </trkpt>
      <trkpt lat="43.41094" lon="1.07836">
        <ele>323</ele>
        <time>2005-09-12T13:29:07Z</time>
      </trkpt>
      <trkpt lat="43.41185" lon="1.07517">
        <ele>327</ele>
        <time>2005-09-12T13:29:07Z</time>
      </trkpt>
      <trkpt lat="43.41199" lon="1.07381">
        <ele>327</ele>
        <time>2005-09-12T13:29:07Z</time>
      </trkpt>
      <trkpt lat="43.41432" lon="1.06907">
        <ele>331</ele>
        <time>2005-09-12T13:29:07Z</time>
      </trkpt>
      <trkpt lat="43.41598" lon="1.06552">
        <ele>334</ele>
        <time>2005-09-12T13:29:07Z</time>
      </trkpt>
      <trkpt lat="43.41745" lon="1.06783">
        <ele>330</ele>
        <time>2005-09-12T13:29:07Z</time>
      </trkpt>
      <trkpt lat="43.41892" lon="1.06712">
        <ele>327</ele>
        <time>2005-09-12T13:29:07Z</time>
      </trkpt>
      <trkpt lat="43.41978" lon="1.06766">
        <ele>326</ele>
        <time>2005-09-12T13:29:07Z</time>
      </trkpt>
      <trkpt lat="43.42052" lon="1.06937">
        <ele>325</ele>
        <time>2005-09-12T13:29:07Z</time>
      </trkpt>
      <trkpt lat="43.42297" lon="1.06765">
        <ele>315</ele>
        <time>2005-09-12T13:29:07Z</time>
      </trkpt>
      <trkpt lat="43.4233" lon="1.06832">
        <ele>312</ele>
        <time>2005-09-12T13:29:07Z</time>
      </trkpt>
      <trkpt lat="43.42357" lon="1.06887">
        <ele>315</ele>
        <time>2005-09-12T13:29:07Z</time>
      </trkpt>
      <trkpt lat="43.42376" lon="1.06936">
        <ele>321</ele>
        <time>2005-09-12T13:29:07Z</time>
      </trkpt>
      <trkpt lat="43.42607" lon="1.06739">
        <ele>308</ele>
        <time>2005-09-12T13:29:07Z</time>
      </trkpt>
      <trkpt lat="43.42813" lon="1.06655">
        <ele>280</ele>
        <time>2005-09-12T13:29:07Z</time>
      </trkpt>
      <trkpt lat="43.42848" lon="1.06617">
        <ele>279</ele>
        <time>2005-09-12T13:29:07Z</time>
      </trkpt>
      <trkpt lat="43.42901" lon="1.06887">
        <ele>277</ele>
        <time>2005-09-12T13:29:07Z</time>
      </trkpt>
      <trkpt lat="43.42981" lon="1.07588">
        <ele>272</ele>
        <time>2005-09-12T13:29:07Z</time>
      </trkpt>
      <trkpt lat="43.42988" lon="1.07829">
        <ele>270</ele>
        <time>2005-09-12T13:29:07Z</time>
      </trkpt>
      <trkpt lat="43.43064" lon="1.07778">
        <ele>270</ele>
        <time>2005-09-12T13:29:07Z</time>
      </trkpt>
      <trkpt lat="43.43212" lon="1.07694">
        <ele>277</ele>
        <time>2005-09-12T13:29:07Z</time>
      </trkpt>
      <trkpt lat="43.43318" lon="1.07538">
        <ele>282</ele>
        <time>2005-09-12T13:29:07Z</time>
      </trkpt>
      <trkpt lat="43.4336" lon="1.0774">
        <ele>290</ele>
        <time>2005-09-12T13:29:07Z</time>
      </trkpt>
      <trkpt lat="43.43334" lon="1.08179">
        <ele>281</ele>
        <time>2005-09-12T13:29:07Z</time>
      </trkpt>
      <trkpt lat="43.43365" lon="1.08492">
        <ele>276</ele>
        <time>2005-09-12T13:29:07Z</time>
      </trkpt>
      <trkpt lat="43.4334" lon="1.08697">
        <ele>274</ele>
        <time>2005-09-12T13:29:07Z</time>
      </trkpt>
      <trkpt lat="43.43449" lon="1.0915">
        <ele>272</ele>
        <time>2005-09-12T13:29:07Z</time>
      </trkpt>
      <trkpt lat="43.43528" lon="1.09408">
        <ele>272</ele>
        <time>2005-09-12T13:29:07Z</time>
      </trkpt>
      <trkpt lat="43.43539" lon="1.09549">
        <ele>274</ele>
        <time>2005-09-12T13:29:07Z</time>
      </trkpt>
      <trkpt lat="43.43617" lon="1.09726">
        <ele>278</ele>
        <time>2005-09-12T13:29:07Z</time>
      </trkpt>
      <trkpt lat="43.43833" lon="1.09734">
        <ele>289</ele>
        <time>2005-09-12T13:29:07Z</time>
      </trkpt>
      <trkpt lat="43.43923" lon="1.09732">
        <ele>287</ele>
        <time>2005-09-12T13:29:07Z</time>
      </trkpt>
      <trkpt lat="43.44042" lon="1.10905">
        <ele>281</ele>
        <time>2005-09-12T13:29:07Z</time>
      </trkpt>
      <trkpt lat="43.44082" lon="1.11274">
        <ele>278</ele>
        <time>2005-09-12T13:29:07Z</time>
      </trkpt>
      <trkpt lat="43.44273" lon="1.1168">
        <ele>277</ele>
        <time>2005-09-12T13:29:07Z</time>
      </trkpt>
      <trkpt lat="43.44376" lon="1.12023">
        <ele>276</ele>
        <time>2005-09-12T13:29:07Z</time>
      </trkpt>
      <trkpt lat="43.4439" lon="1.12491">
        <ele>273</ele>
        <time>2005-09-12T13:29:07Z</time>
      </trkpt>
      <trkpt lat="43.44525" lon="1.12519">
        <ele>272</ele>
        <time>2005-09-12T13:29:07Z</time>
      </trkpt>
      <trkpt lat="43.44659" lon="1.12443">
        <ele>271</ele>
        <time>2005-09-12T13:29:07Z</time>
      </trkpt>
      <trkpt lat="43.44768" lon="1.12533">
        <ele>262</ele>
        <time>2005-09-12T13:29:07Z</time>
      </trkpt>
      <trkpt lat="43.44804" lon="1.12504">
        <ele>254</ele>
        <time>2005-09-12T13:29:07Z</time>
      </trkpt>
      <trkpt lat="43.44817" lon="1.12464">
        <ele>252</ele>
        <time>2005-09-12T13:29:07Z</time>
      </trkpt>
      <trkpt lat="43.44841" lon="1.12442">
        <ele>251</ele>
        <time>2005-09-12T13:29:07Z</time>
      </trkpt>
      <trkpt lat="43.44971" lon="1.12183">
        <ele>267</ele>
        <time>2005-09-12T13:29:07Z</time>
      </trkpt>
      <trkpt lat="43.45015" lon="1.12139">
        <ele>267</ele>
        <time>2005-09-12T13:29:07Z</time>
      </trkpt>
      <trkpt lat="43.4516" lon="1.11852">
        <ele>275</ele>
        <time>2005-09-12T13:29:07Z</time>
      </trkpt>
      <trkpt lat="43.45343" lon="1.11725">
        <ele>270</ele>
        <time>2005-09-12T13:29:07Z</time>
      </trkpt>
      <trkpt lat="43.45455" lon="1.11679">
        <ele>257</ele>
        <time>2005-09-12T13:29:07Z</time>
      </trkpt>
      <trkpt lat="43.45492" lon="1.11759">
        <ele>254</ele>
        <time>2005-09-12T13:29:07Z</time>
      </trkpt>
      <trkpt lat="43.45585" lon="1.11676">
        <ele>263</ele>
        <time>2005-09-12T13:29:07Z</time>
      </trkpt>
      <trkpt lat="43.4588" lon="1.11479">
        <ele>263</ele>
        <time>2005-09-12T13:29:07Z</time>
      </trkpt>
      <trkpt lat="43.45881" lon="1.11596">
        <ele>259</ele>
        <time>2005-09-12T13:29:07Z</time>
      </trkpt>
      <trkpt lat="43.459" lon="1.11657">
        <ele>262</ele>
        <time>2005-09-12T13:29:07Z</time>
      </trkpt>
      <trkpt lat="43.45738" lon="1.1208">
        <ele>247</ele>
        <time>2005-09-12T13:29:07Z</time>
      </trkpt>
      <trkpt lat="43.45736" lon="1.12265">
        <ele>255</ele>
        <time>2005-09-12T13:29:07Z</time>
      </trkpt>
      <trkpt lat="43.45695" lon="1.12248">
        <ele>262</ele>
        <time>2005-09-12T13:29:07Z</time>
      </trkpt>
      <trkpt lat="43.45688" lon="1.12439">
        <ele>273</ele>
        <time>2005-09-12T13:29:07Z</time>
      </trkpt>
      <trkpt lat="43.45636" lon="1.12638">
        <ele>270</ele>
        <time>2005-09-12T13:29:07Z</time>
      </trkpt>
      <trkpt lat="43.45674" lon="1.12791">
        <ele>266</ele>
        <time>2005-09-12T13:29:07Z</time>
      </trkpt>
      <trkpt lat="43.45676" lon="1.13001">
        <ele>256</ele>
        <time>2005-09-12T13:29:07Z</time>
      </trkpt>
      <trkpt lat="43.45701" lon="1.13161">
        <ele>249</ele>
        <time>2005-09-12T13:29:07Z</time>
      </trkpt>
      <trkpt lat="43.45702" lon="1.13229">
        <ele>247</ele>
        <time>2005-09-12T13:29:07Z</time>
      </trkpt>
      <trkpt lat="43.45582" lon="1.1341">
        <ele>238</ele>
        <time>2005-09-12T13:29:07Z</time>
      </trkpt>
      <trkpt lat="43.45515" lon="1.13467">
        <ele>239</ele>
        <time>2005-09-12T13:29:07Z</time>
      </trkpt>
      <trkpt lat="43.45372" lon="1.1347">
        <ele>247</ele>
        <time>2005-09-12T13:29:07Z</time>
      </trkpt>
      <trkpt lat="43.45186" lon="1.13338">
        <ele>251</ele>
        <time>2005-09-12T13:29:07Z</time>
      </trkpt>
      <trkpt lat="43.45054" lon="1.13168">
        <ele>255</ele>
        <time>2005-09-12T13:29:07Z</time>
      </trkpt>
      <trkpt lat="43.44822" lon="1.12976">
        <ele>261</ele>
        <time>2005-09-12T13:29:07Z</time>
      </trkpt>
      <trkpt lat="43.44582" lon="1.12771">
        <ele>264</ele>
        <time>2005-09-12T13:29:07Z</time>
      </trkpt>
      <trkpt lat="43.44392" lon="1.12633">
        <ele>270</ele>
        <time>2005-09-12T13:29:07Z</time>
      </trkpt>
      <trkpt lat="43.44334" lon="1.12671">
        <ele>267</ele>
        <time>2005-09-12T13:29:07Z</time>
      </trkpt>
      <trkpt lat="43.44303" lon="1.12734">
        <ele>261</ele>
        <time>2005-09-12T13:29:07Z</time>
      </trkpt>
      <trkpt lat="43.44105" lon="1.12756">
        <ele>250</ele>
        <time>2005-09-12T13:29:07Z</time>
      </trkpt>
      <trkpt lat="43.43922" lon="1.12871">
        <ele>249</ele>
        <time>2005-09-12T13:29:07Z</time>
      </trkpt>
      <trkpt lat="43.43699" lon="1.12962">
        <ele>252</ele>
        <time>2005-09-12T13:29:07Z</time>
      </trkpt>
      <trkpt lat="43.43331" lon="1.13001">
        <ele>257</ele>
        <time>2005-09-12T13:29:07Z</time>
      </trkpt>
      <trkpt lat="43.43191" lon="1.12992">
        <ele>249</ele>
        <time>2005-09-12T13:29:07Z</time>
      </trkpt>
      <trkpt lat="43.43153" lon="1.12764">
        <ele>257</ele>
        <time>2005-09-12T13:29:07Z</time>
      </trkpt>
      <trkpt lat="43.42946" lon="1.12775">
        <ele>261</ele>
        <time>2005-09-12T13:29:07Z</time>
      </trkpt>
      <trkpt lat="43.42572" lon="1.12653">
        <ele>263</ele>
        <time>2005-09-12T13:29:07Z</time>
      </trkpt>
      <trkpt lat="43.42364" lon="1.12571">
        <ele>248</ele>
        <time>2005-09-12T13:29:07Z</time>
      </trkpt>
      <trkpt lat="43.42343" lon="1.12646">
        <ele>247</ele>
        <time>2005-09-12T13:29:07Z</time>
      </trkpt>
      <trkpt lat="43.41656" lon="1.12765">
        <ele>244</ele>
        <time>2005-09-12T13:29:07Z</time>
      </trkpt>
      <trkpt lat="43.41421" lon="1.1261">
        <ele>253</ele>
        <time>2005-09-12T13:29:07Z</time>
      </trkpt>
      <trkpt lat="43.4162" lon="1.12125">
        <ele>251</ele>
        <time>2005-09-12T13:29:07Z</time>
      </trkpt>
      <trkpt lat="43.41656" lon="1.11948">
        <ele>252</ele>
        <time>2005-09-12T13:29:07Z</time>
      </trkpt>
      <trkpt lat="43.41376" lon="1.11822">
        <ele>277</ele>
        <time>2005-09-12T13:29:07Z</time>
      </trkpt>
      <trkpt lat="43.41369" lon="1.11587">
        <ele>274</ele>
        <time>2005-09-12T13:29:07Z</time>
      </trkpt>
      <trkpt lat="43.41403" lon="1.11463">
        <ele>271</ele>
        <time>2005-09-12T13:29:07Z</time>
      </trkpt>
      <trkpt lat="43.41387" lon="1.11236">
        <ele>275</ele>
        <time>2005-09-12T13:29:07Z</time>
      </trkpt>
      <trkpt lat="43.4134" lon="1.11002">
        <ele>275</ele>
        <time>2005-09-12T13:29:07Z</time>
      </trkpt>
      <trkpt lat="43.41281" lon="1.10936">
        <ele>278</ele>
        <time>2005-09-12T13:29:07Z</time>
      </trkpt>
      <trkpt lat="43.41177" lon="1.10544">
        <ele>283</ele>
        <time>2005-09-12T13:29:07Z</time>
      </trkpt>
      <trkpt lat="43.41082" lon="1.10422">
        <ele>282</ele>
        <time>2005-09-12T13:29:07Z</time>
      </trkpt>
      <trkpt lat="43.41031" lon="1.103">
        <ele>281</ele>
        <time>2005-09-12T13:29:07Z</time>
      </trkpt>
      <trkpt lat="43.40848" lon="1.10082">
        <ele>289</ele>
        <time>2005-09-12T13:29:07Z</time>
      </trkpt>
      <trkpt lat="43.40732" lon="1.1014">
        <ele>290</ele>
        <time>2005-09-12T13:29:07Z</time>
      </trkpt>
      <trkpt lat="43.40054" lon="1.10136">
        <ele>289</ele>
        <time>2005-09-12T13:29:07Z</time>
      </trkpt>
      <trkpt lat="43.39914" lon="1.10072">
        <ele>293</ele>
        <time>2005-09-12T13:29:07Z</time>
      </trkpt>
      <trkpt lat="43.3976" lon="1.09986">
        <ele>291</ele>
        <time>2005-09-12T13:29:07Z</time>
      </trkpt>
      <trkpt lat="43.3973" lon="1.09934">
        <ele>288</ele>
        <time>2005-09-12T13:29:07Z</time>
      </trkpt>
      <trkpt lat="43.39638" lon="1.09942">
        <ele>286</ele>
        <time>2005-09-12T13:29:07Z</time>
      </trkpt>
      <trkpt lat="43.39606" lon="1.09903">
        <ele>285</ele>
        <time>2005-09-12T13:29:07Z</time>
      </trkpt>
      <trkpt lat="43.3956" lon="1.09805">
        <ele>285</ele>
        <time>2005-09-12T13:29:07Z</time>
      </trkpt>
      <trkpt lat="43.39456" lon="1.09715">
        <ele>290</ele>
        <time>2005-09-12T13:29:07Z</time>
      </trkpt>
      <trkpt lat="43.39356" lon="1.09628">
        <ele>293</ele>
        <time>2005-09-12T13:29:07Z</time>
      </trkpt>
      <trkpt lat="43.39371" lon="1.09365">
        <ele>292</ele>
        <time>2005-09-12T13:29:07Z</time>
      </trkpt>
      <trkpt lat="43.39183" lon="1.09228">
        <ele>293</ele>
        <time>2005-09-12T13:29:07Z</time>
      </trkpt>
      <trkpt lat="43.3919" lon="1.09092">
        <ele>294</ele>
        <time>2005-09-12T13:29:07Z</time>
      </trkpt>
      <trkpt lat="43.39169" lon="1.09012">
        <ele>295</ele>
        <time>2005-09-12T13:29:07Z</time>
      </trkpt>
      <trkpt lat="43.39033" lon="1.08892">
        <ele>298</ele>
        <time>2005-09-12T13:29:07Z</time>
      </trkpt>
      <trkpt lat="43.39029" lon="1.08766">
        <ele>300</ele>
        <time>2005-09-12T13:29:07Z</time>
      </trkpt>
      <trkpt lat="43.38813" lon="1.08577">
        <ele>309</ele>
        <time>2005-09-12T13:29:07Z</time>
      </trkpt>
      <trkpt lat="43.38784" lon="1.08731">
        <ele>303</ele>
        <time>2005-09-12T13:29:07Z</time>
      </trkpt>
      <trkpt lat="43.38657" lon="1.0902">
        <ele>295</ele>
        <time>2005-09-12T13:29:07Z</time>
      </trkpt>
      <trkpt lat="43.38525" lon="1.09131">
        <ele>295</ele>
        <time>2005-09-12T13:29:07Z</time>
      </trkpt>
      <trkpt lat="43.38459" lon="1.092">
        <ele>295</ele>
        <time>2005-09-12T13:29:07Z</time>
      </trkpt>
      <trkpt lat="43.38408" lon="1.09118">
        <ele>295</ele>
        <time>2005-09-12T13:29:07Z</time>
      </trkpt>
      <trkpt lat="43.38372" lon="1.09067">
        <ele>295</ele>
        <time>2005-09-12T13:29:07Z</time>
      </trkpt>
      <trkpt lat="43.38304" lon="1.08997">
        <ele>294</ele>
        <time>2005-09-12T13:29:07Z</time>
      </trkpt>
      <trkpt lat="43.38302" lon="1.08886">
        <ele>292</ele>
        <time>2005-09-12T13:29:07Z</time>
      </trkpt>
      <trkpt lat="43.38204" lon="1.08886">
        <ele>279</ele>
        <time>2005-09-12T13:29:07Z</time>
      </trkpt>
      <trkpt lat="43.38082" lon="1.08904">
        <ele>260</ele>
        <time>2005-09-12T13:29:07Z</time>
      </trkpt>
      <trkpt lat="43.38018" lon="1.0896">
        <ele>255</ele>
        <time>2005-09-12T13:29:07Z</time>
      </trkpt>
      <trkpt lat="43.37903" lon="1.0912">
        <ele>257</ele>
        <time>2005-09-12T13:29:07Z</time>
      </trkpt>
      <trkpt lat="43.37828" lon="1.0927">
        <ele>255</ele>
        <time>2005-09-12T13:29:07Z</time>
      </trkpt>
      <trkpt lat="43.37823" lon="1.09433">
        <ele>256</ele>
        <time>2005-09-12T13:29:07Z</time>
      </trkpt>
      <trkpt lat="43.3779" lon="1.09612">
        <ele>254</ele>
        <time>2005-09-12T13:29:07Z</time>
      </trkpt>
      <trkpt lat="43.37762" lon="1.09761">
        <ele>254</ele>
        <time>2005-09-12T13:29:07Z</time>
      </trkpt>
      <trkpt lat="43.37732" lon="1.09882">
        <ele>251</ele>
        <time>2005-09-12T13:29:07Z</time>
      </trkpt>
      <trkpt lat="43.37671" lon="1.10086">
        <ele>247</ele>
        <time>2005-09-12T13:29:07Z</time>
      </trkpt>
      <trkpt lat="43.37566" lon="1.10292">
        <ele>234</ele>
        <time>2005-09-12T13:29:07Z</time>
      </trkpt>
      <trkpt lat="43.37486" lon="1.10549">
        <ele>238</ele>
        <time>2005-09-12T13:29:07Z</time>
      </trkpt>
      <trkpt lat="43.37438" lon="1.10686">
        <ele>240</ele>
        <time>2005-09-12T13:29:07Z</time>
      </trkpt>
      <trkpt lat="43.3722" lon="1.10521">
        <ele>236</ele>
        <time>2005-09-12T13:29:07Z</time>
      </trkpt>
      <trkpt lat="43.37182" lon="1.10509">
        <ele>239</ele>
        <time>2005-09-12T13:29:07Z</time>
      </trkpt>
      <trkpt lat="43.37213" lon="1.10447">
        <ele>239</ele>
        <time>2005-09-12T13:29:07Z</time>
      </trkpt>
      <trkpt lat="43.37197" lon="1.1042">
        <ele>243</ele>
        <time>2005-09-12T13:29:07Z</time>
      </trkpt>
      <trkpt lat="43.37119" lon="1.10508">
        <ele>245</ele>
        <time>2005-09-12T13:29:07Z</time>
      </trkpt>
      <trkpt lat="43.37034" lon="1.10553">
        <ele>253</ele>
        <time>2005-09-12T13:29:07Z</time>
      </trkpt>
      <trkpt lat="43.36964" lon="1.10474">
        <ele>263</ele>
        <time>2005-09-12T13:29:07Z</time>
      </trkpt>
      <trkpt lat="43.36832" lon="1.10354">
        <ele>259</ele>
        <time>2005-09-12T13:29:07Z</time>
      </trkpt>
      <trkpt lat="43.36696" lon="1.10267">
        <ele>252</ele>
        <time>2005-09-12T13:29:07Z</time>
      </trkpt>
      <trkpt lat="43.36466" lon="1.09626">
        <ele>250</ele>
        <time>2005-09-12T13:29:07Z</time>
      </trkpt>
      <trkpt lat="43.36404" lon="1.0947">
        <ele>252</ele>
        <time>2005-09-12T13:29:07Z</time>
      </trkpt>
      <trkpt lat="43.36373" lon="1.0935">
        <ele>257</ele>
        <time>2005-09-12T13:29:07Z</time>
      </trkpt>
      <trkpt lat="43.36263" lon="1.0914">
        <ele>260</ele>
        <time>2005-09-12T13:29:07Z</time>
      </trkpt>
      <trkpt lat="43.36268" lon="1.08977">
        <ele>262</ele>
        <time>2005-09-12T13:29:07Z</time>
      </trkpt>
      <trkpt lat="43.36242" lon="1.08916">
        <ele>260</ele>
        <time>2005-09-12T13:29:07Z</time>
      </trkpt>
      <trkpt lat="43.36039" lon="1.08813">
        <ele>243</ele>
        <time>2005-09-12T13:29:07Z</time>
      </trkpt>
      <trkpt lat="43.35973" lon="1.087">
        <ele>236</ele>
        <time>2005-09-12T13:29:07Z</time>
      </trkpt>
      <trkpt lat="43.35719" lon="1.07785">
        <ele>241</ele>
        <time>2005-09-12T13:29:07Z</time>
      </trkpt>
      <trkpt lat="43.35806" lon="1.077">
        <ele>249</ele>
        <time>2005-09-12T13:29:07Z</time>
      </trkpt>
      <trkpt lat="43.3588" lon="1.07664">
        <ele>252</ele>
        <time>2005-09-12T13:29:07Z</time>
      </trkpt>
      <trkpt lat="43.35988" lon="1.0752">
        <ele>265</ele>
        <time>2005-09-12T13:29:07Z</time>
      </trkpt>
      <trkpt lat="43.36084" lon="1.0746">
        <ele>279</ele>
        <time>2005-09-12T13:29:07Z</time>
      </trkpt>
      <trkpt lat="43.36184" lon="1.07408">
        <ele>284</ele>
        <time>2005-09-12T13:29:07Z</time>
      </trkpt>
      <trkpt lat="43.36284" lon="1.07258">
        <ele>306</ele>
        <time>2005-09-12T13:29:07Z</time>
      </trkpt>
      <trkpt lat="43.36372" lon="1.07109">
        <ele>325</ele>
        <time>2005-09-12T13:29:07Z</time>
      </trkpt>
      <trkpt lat="43.36461" lon="1.07023">
        <ele>334</ele>
        <time>2005-09-12T13:29:07Z</time>
      </trkpt>
      <trkpt lat="43.36522" lon="1.07047">
        <ele>335</ele>
        <time>2005-09-12T13:29:07Z</time>
      </trkpt>
      <trkpt lat="43.3652" lon="1.06865">
        <ele>337</ele>
        <time>2005-09-12T13:29:07Z</time>
      </trkpt>
      <trkpt lat="43.36613" lon="1.06561">
        <ele>338</ele>
        <time>2005-09-12T13:29:07Z</time>
      </trkpt>
      <trkpt lat="43.36632" lon="1.06287">
        <ele>339</ele>
        <time>2005-09-12T13:29:07Z</time>
      </trkpt>
      <trkpt lat="43.36681" lon="1.06073">
        <ele>338</ele>
        <time>2005-09-12T13:29:07Z</time>
      </trkpt>
      <trkpt lat="43.36947" lon="1.0615">
        <ele>324</ele>
        <time>2005-09-12T13:29:07Z</time>
      </trkpt>
      <trkpt lat="43.37007" lon="1.06248">
        <ele>314</ele>
        <time>2005-09-12T13:29:07Z</time>
      </trkpt>
      <trkpt lat="43.37235" lon="1.06353">
        <ele>281</ele>
        <time>2005-09-12T13:29:07Z</time>
      </trkpt>
      <trkpt lat="43.37322" lon="1.06327">
        <ele>271</ele>
        <time>2005-09-12T13:29:07Z</time>
      </trkpt>
      <trkpt lat="43.37392" lon="1.06353">
        <ele>262</ele>
        <time>2005-09-12T13:29:07Z</time>
      </trkpt>
      <trkpt lat="43.37456" lon="1.06222">
        <ele>268</ele>
        <time>2005-09-12T13:29:07Z</time>
      </trkpt>
      <trkpt lat="43.3751" lon="1.06101">
        <ele>266</ele>
        <time>2005-09-12T13:29:07Z</time>
      </trkpt>
      <trkpt lat="43.37568" lon="1.0601">
        <ele>265</ele>
        <time>2005-09-12T13:29:07Z</time>
      </trkpt>
      <trkpt lat="43.37585" lon="1.05951">
        <ele>264</ele>
        <time>2005-09-12T13:29:07Z</time>
      </trkpt>
      <trkpt lat="43.37587" lon="1.05757">
        <ele>270</ele>
        <time>2005-09-12T13:29:07Z</time>
      </trkpt>
      <trkpt lat="43.37589" lon="1.05683">
        <ele>275</ele>
        <time>2005-09-12T13:29:07Z</time>
      </trkpt>
      <trkpt lat="43.37642" lon="1.05485">
        <ele>272</ele>
        <time>2005-09-12T13:29:07Z</time>
      </trkpt>
      <trkpt lat="43.37634" lon="1.05343">
        <ele>277</ele>
        <time>2005-09-12T13:29:07Z</time>
      </trkpt>
      <trkpt lat="43.37599" lon="1.05218">
        <ele>289</ele>
        <time>2005-09-12T13:29:07Z</time>
      </trkpt>
      <trkpt lat="43.37503" lon="1.05091">
        <ele>305</ele>
        <time>2005-09-12T13:29:07Z</time>
      </trkpt>
      <trkpt lat="43.37431" lon="1.04944">
        <ele>322</ele>
        <time>2005-09-12T13:29:07Z</time>
      </trkpt>
      <trkpt lat="43.37394" lon="1.04816">
        <ele>323</ele>
        <time>2005-09-12T13:29:07Z</time>
      </trkpt>
      <trkpt lat="43.3732" lon="1.0467">
        <ele>329</ele>
        <time>2005-09-12T13:29:07Z</time>
      </trkpt>
      <trkpt lat="43.37285" lon="1.04553">
        <ele>326</ele>
        <time>2005-09-12T13:29:07Z</time>
      </trkpt>
      <trkpt lat="43.37259" lon="1.04449">
        <ele>328</ele>
        <time>2005-09-12T13:29:07Z</time>
      </trkpt>
      <trkpt lat="43.37192" lon="1.04423">
        <ele>335</ele>
        <time>2005-09-12T13:29:07Z</time>
      </trkpt>
      <trkpt lat="43.37149" lon="1.04289">
        <ele>336</ele>
        <time>2005-09-12T13:29:07Z</time>
      </trkpt>
      <trkpt lat="43.37137" lon="1.04218">
        <ele>334</ele>
        <time>2005-09-12T13:29:07Z</time>
      </trkpt>
      <trkpt lat="43.37123" lon="1.04151">
        <ele>331</ele>
        <time>2005-09-12T13:29:07Z</time>
      </trkpt>
      <trkpt lat="43.37173" lon="1.04023">
        <ele>320</ele>
        <time>2005-09-12T13:29:07Z</time>
      </trkpt>
      <trkpt lat="43.37245" lon="1.03824">
        <ele>310</ele>
        <time>2005-09-12T13:29:07Z</time>
      </trkpt>
      <trkpt lat="43.37258" lon="1.03769">
        <ele>311</ele>
        <time>2005-09-12T13:29:07Z</time>
      </trkpt>
      <trkpt lat="43.37441" lon="1.03478">
        <ele>331</ele>
        <time>2005-09-12T13:29:07Z</time>
      </trkpt>
      <trkpt lat="43.37491" lon="1.03394">
        <ele>328</ele>
        <time>2005-09-12T13:29:07Z</time>
      </trkpt>
      <trkpt lat="43.37506" lon="1.03307">
        <ele>326</ele>
        <time>2005-09-12T13:29:07Z</time>
      </trkpt>
      <trkpt lat="43.37511" lon="1.03184">
        <ele>321</ele>
        <time>2005-09-12T13:29:07Z</time>
      </trkpt>
      <trkpt lat="43.37564" lon="1.02856">
        <ele>325</ele>
        <time>2005-09-12T13:29:07Z</time>
      </trkpt>
      <trkpt lat="43.37593" lon="1.02677">
        <ele>318</ele>
        <time>2005-09-12T13:29:07Z</time>
      </trkpt>
      <trkpt lat="43.37645" lon="1.02556">
        <ele>319</ele>
        <time>2005-09-12T13:29:07Z</time>
      </trkpt>
      <trkpt lat="43.37639" lon="1.02445">
        <ele>319</ele>
        <time>2005-09-12T13:29:07Z</time>
      </trkpt>
      <trkpt lat="43.37636" lon="1.02319">
        <ele>319</ele>
        <time>2005-09-12T13:29:07Z</time>
      </trkpt>
      <trkpt lat="43.37652" lon="1.02155">
        <ele>320</ele>
        <time>2005-09-12T13:29:07Z</time>
      </trkpt>
      <trkpt lat="43.37636" lon="1.02165">
        <ele>319</ele>
        <time>2005-09-12T13:29:07Z</time>
      </trkpt>
      <trkpt lat="43.37611" lon="1.02113">
        <ele>323</ele>
        <time>2005-09-12T13:29:07Z</time>
      </trkpt>
      <trkpt lat="43.37633" lon="1.02066">
        <ele>325</ele>
        <time>2005-09-12T13:29:07Z</time>
      </trkpt>
      <trkpt lat="43.37625" lon="1.01986">
        <ele>327</ele>
        <time>2005-09-12T13:29:07Z</time>
      </trkpt>
      <trkpt lat="43.37649" lon="1.01973">
        <ele>328</ele>
        <time>2005-09-12T13:29:07Z</time>
      </trkpt>
      <trkpt lat="43.37647" lon="1.01927">
        <ele>329</ele>
        <time>2005-09-12T13:29:07Z</time>
      </trkpt>
      <trkpt lat="43.37676" lon="1.01923">
        <ele>327</ele>
        <time>2005-09-12T13:29:07Z</time>
      </trkpt>
      <trkpt lat="43.37678" lon="1.02139">
        <ele>320</ele>
        <time>2005-09-12T13:29:07Z</time>
      </trkpt>
      <trkpt lat="43.37928" lon="1.02139">
        <ele>299</ele>
        <time>2005-09-12T13:29:07Z</time>
      </trkpt>
      <trkpt lat="43.37998" lon="1.0219">
        <ele>299</ele>
        <time>2005-09-12T13:29:07Z</time>
      </trkpt>
      <trkpt lat="43.37974" lon="1.02206">
        <ele>297</ele>
        <time>2005-09-12T13:29:07Z</time>
      </trkpt>
      <trkpt lat="43.37944" lon="1.02533">
        <ele>297</ele>
        <time>2005-09-12T13:29:07Z</time>
      </trkpt>
      <trkpt lat="43.37938" lon="1.02617">
        <ele>297</ele>
        <time>2005-09-12T13:29:07Z</time>
      </trkpt>
      <trkpt lat="43.37935" lon="1.0274">
        <ele>296</ele>
        <time>2005-09-12T13:29:07Z</time>
      </trkpt>
      <trkpt lat="43.37938" lon="1.02829">
        <ele>290</ele>
        <time>2005-09-12T13:29:07Z</time>
      </trkpt>
      <trkpt lat="43.37981" lon="1.02979">
        <ele>291</ele>
        <time>2005-09-12T13:29:07Z</time>
      </trkpt>
      <trkpt lat="43.37987" lon="1.03133">
        <ele>288</ele>
        <time>2005-09-12T13:29:07Z</time>
      </trkpt>
      <trkpt lat="43.37928" lon="1.03618">
        <ele>286</ele>
        <time>2005-09-12T13:29:07Z</time>
      </trkpt>
      <trkpt lat="43.37925" lon="1.03794">
        <ele>285</ele>
        <time>2005-09-12T13:29:07Z</time>
      </trkpt>
      <trkpt lat="43.37942" lon="1.03886">
        <ele>282</ele>
        <time>2005-09-12T13:29:07Z</time>
      </trkpt>
      <trkpt lat="43.37968" lon="1.04008">
        <ele>283</ele>
        <time>2005-09-12T13:29:07Z</time>
      </trkpt>
      <trkpt lat="43.37967" lon="1.04418">
        <ele>304</ele>
        <time>2005-09-12T13:29:07Z</time>
      </trkpt>
      <trkpt lat="43.37883" lon="1.04592">
        <ele>308</ele>
        <time>2005-09-12T13:29:07Z</time>
      </trkpt>
      <trkpt lat="43.37871" lon="1.04697">
        <ele>309</ele>
        <time>2005-09-12T13:29:07Z</time>
      </trkpt>
      <trkpt lat="43.3795" lon="1.04868">
        <ele>318</ele>
        <time>2005-09-12T13:29:07Z</time>
      </trkpt>
      <trkpt lat="43.38002" lon="1.04929">
        <ele>314</ele>
        <time>2005-09-12T13:29:07Z</time>
      </trkpt>
      <trkpt lat="43.38085" lon="1.04917">
        <ele>330</ele>
        <time>2005-09-12T13:29:07Z</time>
      </trkpt>
      <trkpt lat="43.38113" lon="1.05006">
        <ele>336</ele>
        <time>2005-09-12T13:29:07Z</time>
      </trkpt>
      <trkpt lat="43.38128" lon="1.05141">
        <ele>338</ele>
        <time>2005-09-12T13:29:07Z</time>
      </trkpt>
      <trkpt lat="43.38163" lon="1.05221">
        <ele>336</ele>
        <time>2005-09-12T13:29:07Z</time>
      </trkpt>
      <trkpt lat="43.3819" lon="1.05433">
        <ele>331</ele>
        <time>2005-09-12T13:29:07Z</time>
      </trkpt>
      <trkpt lat="43.38183" lon="1.05578">
        <ele>335</ele>
        <time>2005-09-12T13:29:07Z</time>
      </trkpt>
      <trkpt lat="43.38208" lon="1.05826">
        <ele>336</ele>
        <time>2005-09-12T13:29:07Z</time>
      </trkpt>
      <trkpt lat="43.38192" lon="1.0595">
        <ele>335</ele>
        <time>2005-09-12T13:29:07Z</time>
      </trkpt>
      <trkpt lat="43.38255" lon="1.06195">
        <ele>333</ele>
        <time>2005-09-12T13:29:07Z</time>
      </trkpt>
      <trkpt lat="43.38285" lon="1.06268">
        <ele>330</ele>
        <time>2005-09-12T13:29:07Z</time>
      </trkpt>
      <trkpt lat="43.38351" lon="1.06667">
        <ele>319</ele>
        <time>2005-09-12T13:29:07Z</time>
      </trkpt>
      <trkpt lat="43.38411" lon="1.06839">
        <ele>312</ele>
        <time>2005-09-12T13:29:07Z</time>
      </trkpt>
      <trkpt lat="43.38411" lon="1.07026">
        <ele>304</ele>
        <time>2005-09-12T13:29:07Z</time>
      </trkpt>
      <trkpt lat="43.38429" lon="1.07205">
        <ele>295</ele>
        <time>2005-09-12T13:29:07Z</time>
      </trkpt>
      <trkpt lat="43.38395" lon="1.07415">
        <ele>281</ele>
        <time>2005-09-12T13:29:07Z</time>
      </trkpt>
      <trkpt lat="43.38394" lon="1.07526">
        <ele>274</ele>
        <time>2005-09-12T13:29:07Z</time>
      </trkpt>
      <trkpt lat="43.38435" lon="1.07704">
        <ele>263</ele>
        <time>2005-09-12T13:29:07Z</time>
      </trkpt>
      <trkpt lat="43.38415" lon="1.07938">
        <ele>253</ele>
        <time>2005-09-12T13:29:07Z</time>
      </trkpt>
      <trkpt lat="43.38455" lon="1.07922">
        <ele>253</ele>
        <time>2005-09-12T13:29:07Z</time>
      </trkpt>
      <trkpt lat="43.38568" lon="1.0799">
        <ele>258</ele>
        <time>2005-09-12T13:29:07Z</time>
      </trkpt>
      <trkpt lat="43.387" lon="1.08105">
        <ele>283</ele>
        <time>2005-09-12T13:29:07Z</time>
      </trkpt>
      <trkpt lat="43.38755" lon="1.08165">
        <ele>295</ele>
        <time>2005-09-12T13:29:07Z</time>
      </trkpt>
      <trkpt lat="43.38756" lon="1.08254">
        <ele>297</ele>
        <time>2005-09-12T13:29:07Z</time>
      </trkpt>
      <trkpt lat="43.38788" lon="1.08337">
        <ele>308</ele>
        <time>2005-09-12T13:29:07Z</time>
      </trkpt>
      <trkpt lat="43.38815" lon="1.08361">
        <ele>312</ele>
        <time>2005-09-12T13:29:07Z</time>
      </trkpt>
      <trkpt lat="43.38819" lon="1.08459">
        <ele>312</ele>
        <time>2005-09-12T13:29:07Z</time>
      </trkpt>
      <trkpt lat="43.38795" lon="1.08506">
        <ele>311</ele>
        <time>2005-09-12T13:29:07Z</time>
      </trkpt>
      <trkpt lat="43.38813" lon="1.08577">
        <ele>309</ele>
        <time>2005-09-12T13:29:07Z</time>
      </trkpt>
      <trkpt lat="43.39025" lon="1.08781">
        <ele>299</ele>
        <time>2005-09-12T13:29:07Z</time>
      </trkpt>
      <trkpt lat="43.39033" lon="1.08892">
        <ele>298</ele>
        <time>2005-09-12T13:29:07Z</time>
      </trkpt>
      <trkpt lat="43.39169" lon="1.09012">
        <ele>295</ele>
        <time>2005-09-12T13:29:07Z</time>
      </trkpt>
      <trkpt lat="43.3919" lon="1.09092">
        <ele>294</ele>
        <time>2005-09-12T13:29:07Z</time>
      </trkpt>
      <trkpt lat="43.39183" lon="1.09228">
        <ele>293</ele>
        <time>2005-09-12T13:29:07Z</time>
      </trkpt>
      <trkpt lat="43.39371" lon="1.09365">
        <ele>292</ele>
        <time>2005-09-12T13:29:07Z</time>
      </trkpt>
      <trkpt lat="43.39356" lon="1.09628">
        <ele>293</ele>
        <time>2005-09-12T13:29:07Z</time>
      </trkpt>
      <trkpt lat="43.39456" lon="1.09715">
        <ele>290</ele>
        <time>2005-09-12T13:29:07Z</time>
      </trkpt>
      <trkpt lat="43.3956" lon="1.09805">
        <ele>285</ele>
        <time>2005-09-12T13:29:07Z</time>
      </trkpt>
      <trkpt lat="43.39606" lon="1.09903">
        <ele>285</ele>
        <time>2005-09-12T13:29:07Z</time>
      </trkpt>
      <trkpt lat="43.39698" lon="1.09654">
        <ele>286</ele>
        <time>2005-09-12T13:29:07Z</time>
      </trkpt>
      <trkpt lat="43.39789" lon="1.09387">
        <ele>291</ele>
        <time>2005-09-12T13:29:07Z</time>
      </trkpt>
      <trkpt lat="43.39863" lon="1.09154">
        <ele>293</ele>
        <time>2005-09-12T13:29:07Z</time>
      </trkpt>
      <trkpt lat="43.3982" lon="1.08974">
        <ele>299</ele>
        <time>2005-09-12T13:29:07Z</time>
      </trkpt>
      <trkpt lat="43.39797" lon="1.08903">
        <ele>301</ele>
        <time>2005-09-12T13:29:07Z</time>
      </trkpt>
      <trkpt lat="43.39792" lon="1.08851">
        <ele>302</ele>
        <time>2005-09-12T13:29:07Z</time>
      </trkpt>
      <trkpt lat="43.39763" lon="1.08738">
        <ele>306</ele>
        <time>2005-09-12T13:29:07Z</time>
      </trkpt>
      <trkpt lat="43.39774" lon="1.08707">
        <ele>308</ele>
        <time>2005-09-12T13:29:07Z</time>
      </trkpt>
      <trkpt lat="43.39726" lon="1.08634">
        <ele>309</ele>
        <time>2005-09-12T13:29:07Z</time>
      </trkpt>
      <trkpt lat="43.39785" lon="1.08441">
        <ele>313</ele>
        <time>2005-09-12T13:29:07Z</time>
      </trkpt>
      <trkpt lat="43.39889" lon="1.08303">
        <ele>316</ele>
        <time>2005-09-12T13:29:07Z</time>
      </trkpt>
      <trkpt lat="43.39957" lon="1.07827">
        <ele>323</ele>
        <time>2005-09-12T13:29:07Z</time>
      </trkpt>
      <trkpt lat="43.39964" lon="1.07612">
        <ele>325</ele>
        <time>2005-09-12T13:29:07Z</time>
      </trkpt>
      <trkpt lat="43.39983" lon="1.07491">
        <ele>325</ele>
        <time>2005-09-12T13:29:07Z</time>
      </trkpt>
      <trkpt lat="43.4001" lon="1.07309">
        <ele>316</ele>
        <time>2005-09-12T13:29:07Z</time>
      </trkpt>
      <trkpt lat="43.40056" lon="1.07209">
        <ele>305</ele>
        <time>2005-09-12T13:29:07Z</time>
      </trkpt>
      <trkpt lat="43.40111" lon="1.0734">
        <ele>306</ele>
        <time>2005-09-12T13:29:07Z</time>
      </trkpt>
      <trkpt lat="43.40162" lon="1.07438">
        <ele>303</ele>
        <time>2005-09-12T13:29:07Z</time>
      </trkpt>
      <trkpt lat="43.4019" lon="1.07545">
        <ele>303</ele>
        <time>2005-09-12T13:29:07Z</time>
      </trkpt>
      <trkpt lat="43.40225" lon="1.07643">
        <ele>301</ele>
        <time>2005-09-12T13:29:07Z</time>
      </trkpt>
      <trkpt lat="43.40303" lon="1.0778">
        <ele>302</ele>
        <time>2005-09-12T13:29:07Z</time>
      </trkpt>
      <trkpt lat="43.40325" lon="1.07745">
        <ele>297</ele>
        <time>2005-09-12T13:29:07Z</time>
      </trkpt>
      <trkpt lat="43.40347" lon="1.07733">
        <ele>293</ele>
        <time>2005-09-12T13:29:07Z</time>
      </trkpt>
      <trkpt lat="43.40366" lon="1.07788">
        <ele>296</ele>
        <time>2005-09-12T13:29:07Z</time>
      </trkpt>
      <trkpt lat="43.40391" lon="1.07818">
        <ele>295</ele>
        <time>2005-09-12T13:29:07Z</time>
      </trkpt>
      <trkpt lat="43.40432" lon="1.07848">
        <ele>293</ele>
        <time>2005-09-12T13:29:07Z</time>
      </trkpt>
      <trkpt lat="43.40473" lon="1.0789">
        <ele>293</ele>
        <time>2005-09-12T13:29:07Z</time>
      </trkpt>
      <trkpt lat="43.40502" lon="1.07917">
        <ele>291</ele>
        <time>2005-09-12T13:29:07Z</time>
      </trkpt>
      <trkpt lat="43.40572" lon="1.08131">
        <ele>288</ele>
        <time>2005-09-12T13:29:07Z</time>
      </trkpt>
      <trkpt lat="43.4062" lon="1.08355">
        <ele>282</ele>
        <time>2005-09-12T13:29:07Z</time>
      </trkpt>
      <trkpt lat="43.40623" lon="1.08435">
        <ele>281</ele>
        <time>2005-09-12T13:29:07Z</time>
      </trkpt>
      <trkpt lat="43.40567" lon="1.08665">
        <ele>287</ele>
        <time>2005-09-12T13:29:07Z</time>
      </trkpt>
      <trkpt lat="43.40574" lon="1.08732">
        <ele>288</ele>
        <time>2005-09-12T13:29:07Z</time>
      </trkpt>
      <trkpt lat="43.40604" lon="1.0892">
        <ele>286</ele>
        <time>2005-09-12T13:29:07Z</time>
      </trkpt>
      <trkpt lat="43.40666" lon="1.09091">
        <ele>277</ele>
        <time>2005-09-12T13:29:07Z</time>
      </trkpt>
      <trkpt lat="43.40665" lon="1.09146">
        <ele>277</ele>
        <time>2005-09-12T13:29:07Z</time>
      </trkpt>
      <trkpt lat="43.40652" lon="1.09214">
        <ele>277</ele>
        <time>2005-09-12T13:29:07Z</time>
      </trkpt>
      <trkpt lat="43.40673" lon="1.09316">
        <ele>276</ele>
        <time>2005-09-12T13:29:07Z</time>
      </trkpt>
      <trkpt lat="43.40747" lon="1.0945">
        <ele>276</ele>
        <time>2005-09-12T13:29:07Z</time>
      </trkpt>
      <trkpt lat="43.40802" lon="1.09572">
        <ele>272</ele>
        <time>2005-09-12T13:29:07Z</time>
      </trkpt>
      <trkpt lat="43.4072" lon="1.09626">
        <ele>283</ele>
        <time>2005-09-12T13:29:07Z</time>
      </trkpt>
      <trkpt lat="43.40691" lon="1.0966">
        <ele>286</ele>
        <time>2005-09-12T13:29:07Z</time>
      </trkpt>
      <trkpt lat="43.40615" lon="1.09711">
        <ele>291</ele>
        <time>2005-09-12T13:29:07Z</time>
      </trkpt>
    </trkseg>
  </trk>
</gpx>